Other Public Products
Issued by NWS Grand Forks, ND

Home | Current Version | Previous Version | Text Only | Print | Product List | Glossary On
Versions: 1 2 3 4 5 6 7 8 9 10 11 12 13 14 15 16 17 18 19 20 21 22 23 24 25 26 27 28 29 30 31 32 33 34 35 36 37 38 39 40 41 42 43 44 45 46 47 48 49 50
000
FPUS83 KFGF 240231
OPUFGF
PRAIRIE TO PINES WEATHER ROUNDUP
NATIONAL WEATHER SERVICE EASTERN NORTH DAKOTA/GRAND FORKS ND
900 PM CDT THU MAR 23 2017

 **SATELLITE DATA USED TO AUGMENT SKY COVER AT AUTOMATED STATIONS**
 *****  WEATHER ACROSS EASTERN NORTH DAKOTA  *****

CITY           SKY/WX    TMP DP  RH WIND       PRES   REMARKS
GRAND FORKS    CLOUDY    35  34  96 W5        29.87R
GRAND FORKS AF CLOUDY    36  34  93 W3        29.86S
GRAND CITY NWS NOT AVBL
BUXTON         NOT AVBL
DEVILS LAKE    FAIR      33  32  96 CALM      29.85R
FARGO          CLOUDY    36  35  96 E5        29.84R
WAHPETON ARPT    N/A     34  32  93 E3        29.83S
$$

 *****  WEATHER ACROSS CENTRAL AND WESTERN NORTH DAKOTA  *****

CITY           SKY/WX    TMP DP  RH WIND       PRES   REMARKS
JAMESTOWN      CLOUDY    35  34  96 N5        29.81R FOG
BISMARCK       CLOUDY    40  38  93 W5        29.86R
MINOT          FAIR      35  31  85 NW8       29.88R
MINOT AFB      FAIR      33  30  88 N6        29.88R
GARRISON         N/A     34  31  88 NW8       29.87R
WILLISTON      CLOUDY    46  37  71 N6        29.87R
DICKINSON      CLOUDY    42  38  85 SW10      29.85R
HETTINGER      CLOUDY    40  39  97 W5        29.89R
$$

 *****  OTHER OBSERVATIONS NORTHEAST NORTH DAKOTA  *****

CITY           SKY/WX    TMP DP  RH WIND       PRES   REMARKS
WALHALLA       NOT AVBL
LANGDON        FAIR      32  32 100 NW9       29.86R WCI  24
CAVALIER       NOT AVBL
GRAFTON        FAIR      34  34 100 S7        29.87S
CANDO          NOT AVBL
FORT TOTTEN      N/A     33  33 100 CALM      29.95S
ROLLA          FAIR      32  32 100 NW12      29.87R WCI  23
RUGBY            N/A     30  30 100 W6        29.87R WCI  24
 ***** THE ABOVE OBSERVATIONS ARE NON NWS ARE NOT QUALITY
        CONTROLLED AND MAY MIS-REPORT RAIN FOR SNOW...
$$

 *****  OTHER OBSERVATIONS SOUTHEAST NORTH DAKOTA *****

CITY           SKY/WX    TMP DP  RH WIND       PRES   REMARKS
COOPERSTOWN    MOCLDY    34  34 100 CALM      29.85R FOG
VALLEY CITY    CLOUDY    34  34 100 CALM      29.84R
OAKES          NOT AVBL
GWINNER        CLOUDY    36  36 100 MISG      29.81R FOG
SHEYENNE NWR     N/A     35  35 100 NE2       29.95S
BUFFALO        NOT AVBL
WYNDMERE         N/A     36  36 100 NE2         N/A
 ***** THE ABOVE OBSERVATIONS ARE NON NWS ARE NOT QUALITY
       CONTROLLED AND MAY MIS-REPORT RAIN FOR SNOW...
$$

  *****  WEATHER ACROSS NORTHERN MINNESOTA  *****

CITY           SKY/WX    TMP DP  RH WIND       PRES   REMARKS
FLAG ISLAND    CLOUDY    36  30  80 SW5       29.83S
WARROAD        CLOUDY    36  32  87 SW3       29.85R
ROSEAU         MOCLDY    36  30  80 CALM      29.85R
HALLOCK        CLOUDY    34  34 100 CALM      29.86R
THF RVR FALLS  CLOUDY   N/A N/A N/A W5        29.86R
HALSTAD          N/A     34  32  94 CALM        N/A
FOSSTON        CLOUDY    32  30  93 CALM      29.86R FOG
BAUDETTE       CLOUDY    34  32  92 CALM      29.83R
WASKISH        CLOUDY    36  34  93 CALM      29.86R
CROOKSTON      MIX PCPN  34  34 100 CALM      29.88R
$$
  *****  WEATHER ACROSS CENTRAL AND WEST MINNESOTA  *****

CITY           SKY/WX    TMP DP  RH WIND       PRES   REMARKS
BEMIDJI        CLOUDY    33  32  97 CALM      29.85R
PARK RAPIDS    LGT RAIN  34  31  88 SE3       29.83R
WADENA         CLOUDY    32  32 100 SE3       29.83S FOG
DETROIT LAKES  DRIZZLE   34  34 100 SE3       29.85R
MOORHEAD       CLOUDY    34  34 100 CALM      29.86S FOG
FERGUS FALLS   CLOUDY    34  34 100 E3        29.86S FOG
ELBOW LAKE     CLOUDY    34  34 100 CALM      29.82R FOG
MORRIS MN      CLOUDY    36  34  93 SE9       29.80R FOG
STAPLES        CLOUDY    32  32 100 SE8       29.83F FOG     WCI  25
WHEATON        CLOUDY    36  34  93 CALM      29.83S FOG
$$
  *****  WEATHER ELSEWHERE ACROSS MINNESOTA  *****

CITY           SKY/WX    TMP DP  RH WIND       PRES   REMARKS
DULUTH         FRZ RAIN  32  31  96 S6        29.87F FOG
INTRNTL FALLS  CLOUDY    33  31  92 CALM      29.84S
ELY            MIX PCPN  32  30  93 S5        29.85F
CLOQUET        MIX PCPN  32  30  93 SE7       29.86F
BRAINERD       CLOUDY    33  32  96 SE7       29.85F FOG
HIBBING        FRZ RAIN  31  31 100 SE7       29.86F FOG     WCI  24
ALEXANDRIA     CLOUDY    34  33  96 SE7       29.81S FOG
SAINT CLOUD    CLOUDY    35  35 100 E5        29.84S FOG
MINNEAPOLIS    CLOUDY    39  34  82 SE12      29.82F
$$

  *****  WEATHER ACROSS SOUTH DAKOTA  *****

CITY           SKY/WX    TMP DP  RH WIND       PRES   REMARKS
SIOUX FALLS    CLOUDY    46  41  82 NE8       29.71R
BROOKINGS      LGT RAIN  41  40  96 E6        29.73R FOG
WATERTOWN      CLOUDY    36  35  96 NE5       29.76R FOG
HURON          CLOUDY    42  42 100 NE7       29.74R
SISSETON         N/A     36  36 100 CALM      29.80R
ABERDEEN       MOCLDY    35  32  88 NE8       29.78R
MITCHELL       CLOUDY    47  46  97 N13       29.72S FOG
PIERRE         FAIR      48  38  68 NE14      29.75R
MOBRIDGE       CLOUDY    43  36  76 N12       29.80R
RAPID CITY     CLOUDY    44  39  82 N21G31    29.87R
$$

  *****  SOME WEATHER IN NEARBY STATES *****

CITY           SKY/WX    TMP DP  RH WIND       PRES   REMARKS
GLASGOW MT     FAIR      49  30  48 N6        29.87R
GREAT FALLS MT FAIR      42  18  37 W10       29.94R
CHEYENNE WY    CLOUDY    40  36  86 N26G39    29.77R
SCOTTSBLUFF NE LGT RAIN  49  42  77 N20G26    29.77R
OMAHA NE       MOCLDY    72  51  47 SE20      29.64S
DES MOINES IA  FAIR      56  38  50 SE9       29.77R
DAVENPORT IA   FAIR      43  36  76 SE12      29.93R
CHICAGO IL     CLOUDY    47  33  58 S14       30.02F
EAU CLAIRE WI  CLOUDY    41  31  67 S10       29.87F
LA CROSSE WI   CLOUDY    41  35  79 CALM      29.93R
$$

  *****  SOME NATIONAL WEATHER *****

CITY           SKY/WX    TMP DP  RH WIND       PRES   REMARKS
LA GUARDIA NY  FAIR      40  21  46 S8        30.56R
RALEIGH NC     FAIR      46  20  35 SE6       30.53R
ATLANTA GA     CLOUDY    60  38  43 SE12      30.40R
NEW ORLEANS LA MOCLDY    71  65  81 SE14      30.19R
OKLAHOMA CITY  FAIR      74  45  35 S28G37    29.74F
ALBUQUERQUE NM MOCLDY    46  27  47 W18G29    29.83R
SALT LAKE CITY FAIR      42  38  85 CALM      30.00R
LOS ANGELES CA FAIR      59  50  72 SW16      30.15R
BOISE ID       FAIR      51  26  37 N6        30.03R
SEATTLE WA     CLOUDY    53  35  50 SW8       29.92S
$$

*** WEATHER ACROSS MANITOBA...SASKATCHEWAN AND ONTARIO ***
                ***ONTARIO***

CITY           SKY/WX    TMP DP  RH WIND       PRES   REMARKS
GERALDTON      CLOUDY    30  25  80 SW14G24   29.84F WCI  20
THUNDER BAY    LGT SNOW  32  32 100 SE3       29.89F
SIOUX LOOKOUT  CLOUDY    34  28  80 SW8       29.80R
TORONTO        CLOUDY    32  19  59 SE10      30.36F WCI  24
BIG TROUT LK   CLOUDY    30  27  86 N10       29.73R WCI  21
PICKLE LAKE    CLOUDY    37  27  65 SW14G20   29.70R
DRYDEN         CLOUDY    34  30  86 SW9       29.81R
KENORA         CLOUDY    34  32  93 SW8       29.83
$$
                *** MANITOBA***

CITY           SKY/WX    TMP DP  RH WIND       PRES   REMARKS
BRANDON        PTCLDY    32  28  86 N5        29.89R
DAUPHIN        PTCLDY    30  25  80 NE13      29.94R WCI  20
ISLAND LAKE    FLURRIES  28  23  80 N13G21    29.88R WCI  18
PILOT MOUND      N/A     32  30  93 NW8         N/A  WCI  25
THE PAS        FLURRIES  25  19  80 NW6       30.01R WCI  18
THOMPSON       PTCLDY    12   3  67 N13       30.07  WCI  -3
WINNIPEG       MOCLDY    32  30  93 W5        29.86R
LYNN LAKE      CLEAR      9   0  66 NE12      30.10R WCI  -6
CHURCHILL      CLEAR     -6 -11  77 N18G26    30.21R WCI -29
GILLAM         PTCLDY     1  -4  78 N15       30.09R WCI -18
$$
                ***SASKATCHEWAN***

CITY           SKY/WX    TMP DP  RH WIND       PRES   REMARKS
ESTEVAN        PTCLDY    34  32  93 NW8       29.88R
KINDERSLEY     PTCLDY    32  28  86 NE12      29.90R WCI  23
LLOYDMINSTER   PTCLDY    23  21  93 SW2       29.93R
PRINCE ALBERT  CLOUDY    28  21  74 NE6       29.99R WCI  22
REGINA         PTCLDY    37  27  65 NE8       29.89R
YORKTON        CLEAR     28  23  80 NW5       29.91R WC



USA.gov is the U.S. government's official web portal to all federal, state and local government web resources and services.